Location: Burris and Nunn Ranch
(34.3459°N, 106.6195°W)
Time: 05:12:41
(UTC+00:00)

Daily predictions for brighter satellites

Satellite Brightness Start Highest point End
(mag) Time Altitude Azimuth Time Altitude Azimuth Time Altitude Azimuth
Cosmos 1503 Rocket 4.0 00:13:06 10° S 00:18:21 77° ESE 00:23:35 10° NNE
SL-16 R/B 3.4 00:14:38 10° N 00:20:37 52° WNW 00:26:33 10° SW
Cosmos 2227 Rocket 3.5 00:17:12 10° NNE 00:20:49 17° ENE 00:24:25 10° E
Okean 1-7 Rocket 4.5 00:18:32 10° NNE 00:22:17 27° ENE 00:25:58 10° SE
SAR-Lupe-4 4.4 00:20:34 10° SE 00:23:41 29° ENE 00:26:48 10° N
NOSS 3-2 (C) 3.6 00:19:56 10° SW 00:24:39 57° NW 00:30:06 10° NNE
IRS-1C 4.4 00:21:27 10° SE 00:26:27 44° ENE 00:31:28 10° N
Cosmos 1354 Rocket 4.1 00:21:38 10° S 00:26:49 62° ESE 00:32:00 10° NNE
ATLAS 5 CENTAUR R/B 4.4 00:21:19 10° S 00:26:52 51° ESE 00:47:31 10° NE
USA 290 3.0 00:24:25 10° N 00:27:20 30° ENE 00:30:13 10° SE
Cosmos 1697 Rocket 2.7 00:24:06 10° S 00:29:39 70° ESE 00:35:14 10° NNE
ATLAS CENTAUR R/B 1.1 00:28:40 10° NNW 00:31:39 36° ENE 00:34:32 10° SE
CZ-2D R/B 3.3 00:29:09 10° SE 00:32:00 34° ENE 00:34:53 10° N
Cosmos 1602 Rocket 3.6 00:28:05 10° N 00:32:23 56° E 00:36:37 10° SSE
Cosmos 1782 4.2 00:29:09 10° SSW 00:32:28 36° W 00:35:49 10° NNW
SKYMED 2 4.4 00:30:53 10° NE 00:34:43 30° E 00:38:31 10° SSE
YAOGAN 1 4.2 00:32:51 10° E 00:34:46 13° ENE 00:36:40 10° NE
IRIDIUM 104 4.3 00:31:40 10° N 00:36:52 65° E 00:42:02 10° S
SMAP 3.0 00:33:48 10° SSE 00:38:26 80° ENE 00:43:06 10° N
Landsat 7 3.7 00:39:12 10° SSE 00:43:48 69° ENE 00:48:26 10° N
IRIDIUM 114 4.3 00:40:46 10° N 00:46:00 81° E 00:51:13 10° S
Gbstr 26 Del rocket 4.1 00:43:20 10° WSW 00:47:11 33° NW 00:50:40 10° NNE
Cosmos-2242 4.3 00:45:26 10° SE 00:48:31 20° E 00:50:38 14° NE
Cosmos 1743 3.2 00:50:13 10° NNW 00:53:23 51° W 00:56:30 10° S
IRIDIUM 103 4.4 00:49:56 10° N 00:55:09 81° W 01:00:21 10° S
Cosmos 1953 Rocket 4.5 00:51:41 10° NNE 00:55:26 26° ENE 00:59:10 10° SE
Meteor 1-20 Rocket 4.1 00:50:08 10° N 00:55:36 84° E 01:01:05 10° S
EXPRESS MD2 2.4 00:54:20 10° WSW 00:56:38 70° NW 00:58:35 20° NE
BREEZE-M DEB (TANK) 3.3 00:52:44 10° WSW 00:59:02 59° NW 01:00:58 18° NE
BREEZE-M DEB (TANK) 4.4 00:48:02 10° WNW 01:00:33 71° SW 01:04:38 10° SE
Helios 1A Rocket 3.6 00:59:45 22° ENE 01:00:37 24° E 01:03:27 10° SSE
Cosmos 372 Rocket 4.3 00:57:05 10° S 01:01:56 43° ESE 01:06:00 14° NE
Cosmos 1867 4.0 00:59:05 10° NNW 01:04:10 38° NE 01:09:12 10° SE
Cosmos 1655 Rocket 4.2 00:58:23 10° N 01:04:24 49° E 01:10:21 10° SSE
Aureole 1 Rocket 3.2 01:01:35 10° S 01:05:16 47° E 01:09:04 14° NNE
Cosmos 1825 Rocket 3.4 01:01:45 10° N 01:06:04 64° E 01:10:18 10° SSE
Cosmos 2151 3.9 01:05:05 10° NNW 01:09:06 50° W 01:13:07 10° SSW
ARIANE 5 R/B 3.0 01:08:28 10° S 01:13:24 61° WSW 01:18:27 10° NNW
Cosmos 2297 Rocket 2.5 01:08:24 10° NNW 01:14:02 69° WSW 01:19:38 10° S
IRS-P3 4.1 01:10:49 10° SSE 01:16:07 88° WSW 01:21:28 10° NNW
Cosmos 2058 Rocket 3.2 01:13:11 10° SSE 01:17:30 51° E 01:20:44 17° NNE
CZ-4 R/B 4.2 01:14:07 10° SSE 01:18:01 68° ENE 01:21:56 10° N
NOSS 2-3 (C) 4.0 01:15:22 10° SW 01:18:48 43° WNW 01:21:05 18° N
USA 81 4.2 01:18:42 10° N 01:23:48 49° E 01:28:52 10° SSE
SPOT 1/Viking Rocket 3.4 01:19:23 10° SSE 01:24:32 76° ENE 01:29:45 10° N
USA 238 DEB 3.5 01:18:38 10° SW 01:24:34 77° WNW 01:29:47 16° NNE
USA 238 3.5 01:18:43 10° SW 01:24:40 79° WNW 01:29:52 16° NNE
BlueWalker 3 2.2 01:21:12 10° NW 01:24:46 60° SW 01:28:00 12° SSE
Hubble Space Telescope 2.2 01:25:20 10° SW 01:28:24 23° SSE 01:29:22 21° SE
Cosmos 1980 Rocket 2.3 01:26:38 10° SSW 01:32:17 78° WNW 01:36:57 16° NNE
CZ-2D R/B 3.3 01:28:40 10° SSE 01:32:51 76° ENE 01:37:02 10° N
Cosmos 1076 Rocket 3.4 01:29:12 10° N 01:33:31 84° E 01:37:49 10° S
PSLV R/B 3.5 01:29:41 10° SSE 01:37:16 11° N 01:37:27 10° N
Cosmos 2084 Rocket 3.2 01:30:07 10° NNW 01:34:19 73° ENE 01:36:16 31° SE
MOS 1 Rocket 4.4 01:30:13 10° S 01:34:46 47° W 01:39:37 10° NNW
Cosmos 1607 4.2 01:29:15 10° NNW 01:35:27 70° WSW 01:41:43 10° SSE
Meteor 1-5 Rocket 4.1 01:32:39 10° N 01:38:03 84° W 01:43:34 10° S
CZ-4C R/B 3.1 01:31:21 10° NNW 01:39:04 86° ENE 01:48:11 10° SSE
Okean 1 3.0 01:35:58 10° S 01:39:14 65° SE 01:39:14 65° SE
Cosmos 2369 3.6 01:35:35 10° S 01:41:14 67° ESE 01:43:37 35° NE
Resurs 1-3 3.4 01:38:00 10° SSE 01:42:17 78° ENE 01:46:35 10° N
BREEZE M DEB (TANK) 2.3 01:37:53 10° NW 01:43:48 61° NNE 01:43:48 61° NNE
COSMO-SKYMED 1 2.9 01:40:54 16° N 01:44:01 58° WNW 01:48:02 10° SSW
Cosmos 2263 Rocket 2.2 01:46:22 10° NNW 01:51:56 55° ENE 01:52:20 54° E
Sakura Rocket 4.0 01:51:22 10° WSW 01:54:42 30° S 01:54:42 30° S
COSMOS 2455 3.0 01:50:38 10° S 01:56:21 49° ESE 01:56:21 49° ESE
Nadezhda 2 Rocket 4.3 01:51:50 10° N 01:57:54 64° E 02:03:56 10° SSE
Cosmos 1538 Rocket 3.9 01:53:06 10° NNW 01:58:23 71° ENE 01:59:08 61° ESE
Cosmos 1553 Rocket 3.9 01:54:22 10° S 02:00:29 88° W 02:05:47 15° N
Cosmos 2227 Rocket 2.6 01:59:41 10° NNW 02:05:15 60° WSW 02:10:46 10° S
Cosmos 2333 Rocket 4.4 02:00:53 10° SSE 02:01:21 12° SSE 02:01:21 12° SSE
YAOGAN 1 3.6 02:06:07 10° S 02:10:10 44° W 02:14:15 10° NNW
SL-19 R/B 4.4 02:06:17 10° S 02:11:30 67° WSW 02:16:59 10° NNW
SL-24 R/B - RUBIN 2 4.0 02:06:48 10° SSW 02:12:15 80° S 02:12:15 80° S
SL-16 R/B 4.0 02:50:11 10° SSW 02:52:17 24° SSW 02:52:17 24° SSW
H-2A R/B 4.0 03:04:18 10° WSW 03:44:54 - ESE 03:05:46 27° WSW
CZ-3 R/B 4.2 08:19:46 10° W 09:25:10 65° SE 09:35:21 10° ESE
CZ-3 Stage 3 4.2 10:07:38 55° ESE 10:07:38 55° ESE 10:26:22 10° E
Aureole 1 Rocket 4.5 11:35:16 32° N 11:39:04 74° ENE 11:46:27 10° SSE
COSMOS 2406 3.3 11:44:06 62° N 11:44:06 62° N 11:48:49 10° NNE
OAO 3 Copernicus 4.5 11:45:52 68° SE 11:45:52 68° SE 11:50:33 10° E
Cosmos 2082 Rocket 4.3 11:52:33 13° N 11:52:33 13° N 11:53:06 10° N
Centaur D AC-28 4.0 11:46:17 35° WSW 11:48:28 38° SW 11:53:19 10° SE
Tiangong 0.4 11:51:40 23° E 11:51:40 23° E 11:53:05 10° E
SL-16 R/B 4.0 11:48:39 10° N 11:53:26 27° ENE 11:58:11 10° ESE
